Regional Weather Roundup
Issued by NWS

Home | Current Version | Previous Version | Graphics & Text | Print | Product List | Glossary Off
Versions: 1 2 3 4 5 6 7 8 9 10 11 12 13 14 15 16 17 18 19 20 21 22 23 24 25 26 27 28 29 30 31 32 33 34 35 36 37 38 39 40 41 42 43 44 45 46 47 48 49 50

000
ASUS43 KTOP 211608
RWRKS

WEATHER ROUNDUP FOR KANSAS
NATIONAL WEATHER SERVICE GOODLAND KS
1000 AM CST SAT JAN 21 2017

NOTE:  "FAIR" INDICATES FEW OR NO CLOUDS BELOW 12,000 FEET WITH NO
SIGNIFICANT WEATHER AND/OR OBSTRUCTIONS TO VISIBILITY.

KSZ001>006-013>018-027>032-041>047-211700-
NORTHWEST KANSAS

CITY           SKY/WX    TMP DP  RH WIND       PRES   REMARKS
GOODLAND       SUNNY     33  30  88 CALM      29.41F
HAYS           SUNNY     38  34  85 S7        29.48R
HILL CITY      SUNNY     36  32  85 NW5       29.46S
RUSSELL        SUNNY     36  33  89 S6        29.47R
$$

KSZ061>065-074>080-084>089-211700-
SOUTHWEST KANSAS

CITY           SKY/WX    TMP DP  RH WIND       PRES   REMARKS
DODGE CITY     SUNNY     38  34  85 E7        29.45S
ELKHART          N/A     36  26  67 S12         N/A  WCI  28
GARDEN CITY    SUNNY     38  34  85 SE13      29.43R WCI  30
GREAT BEND     SUNNY     39  35  86 S5        29.50R
LIBERAL        CLOUDY    34  28  80 S3        29.43R
PRATT          SUNNY     40  34  77 E5        29.50S
$$

KSZ066>073-081>083-090>101-211700-
SOUTHEAST KANSAS

CITY           SKY/WX    TMP DP  RH WIND       PRES   REMARKS
CHANUTE        SUNNY     44  39  82 SW10      29.59R
COFFEYVILLE    PTSUNNY   45  39  79 SW3       29.59F
HUTCHINSON     SUNNY     41  35  79 VRB3      29.52S
MEDICINE LODGE   N/A     36  33  89 E3        29.52F
NEWTON         SUNNY     40  37  89 S6        29.54S
PARSONS        MOSUNNY   43  38  82 CALM      29.59S
WICHITA INTL   MOSUNNY   38  35  89 S3        29.54S
WICHITA JABRA  SUNNY     39  36  89 S8        29.55R
WICHITA MCCONL SUNNY     39  36  88 S6        29.54R
WINFIELD       SUNNY     42  38  85 S5        29.58S
$$

KSZ007>012-019>026-033>040-048>060-102>105-211700-
NORTHEAST KANSAS

CITY           SKY/WX    TMP DP  RH WIND       PRES   REMARKS
CONCORDIA      SUNNY     38  36  92 SW6       29.48R
EMPORIA        SUNNY     40  38  93 S8        29.55R
LAWRENCE       CLOUDY    41  41 100 S9        29.55R FOG
MANHATTAN      SUNNY     41  37  86 SW9       29.53R
MARYSVILLE     SUNNY     39  37  93 NW5       29.47R
OLATHE IND     FOG       40  40 100 SW17      29.56R VSB 1   WCI  31
OLATHE EXE     CLOUDY    40  40 100 S12       29.56R FOG     WCI  33
SALINA         SUNNY     39  36  89 S8        29.52R
TOPEKA BILLARD MOSUNNY   39  38  96 S6        29.55R
TOPEKA FORBES  MOSUNNY   42  39  89 S14       29.55R
$$




USA.gov is the U.S. government's official web portal to all federal, state and local government web resources and services.